This demonstration page uses our WeatherBlox Daily Observations layout. Learn more.

Left ArrowRight Arrow

Hourly Observations for September 23, 2020

Temp ( °F °C ) Dew Point ( °F °C ) Humidity (%) Winds ( mph kmh ) Pressure ( in mb ) Visibility ( mi km ) Precip ( " mm )
12:15 am 00:15 Clear 60 15.7 55 13 84 84 S 8 13 29.98 1015 10 16 N/A
12:35 am 00:35 Clear 61 15.9 56 13.6 86 86 S 8 13 29.99 1016 10 16 N/A
12:55 am 00:55 Clear 60 15.7 57 13.9 89 89 S 8 13 29.98 1015 10 16 N/A
1:15 am 01:15 Clear 60 15.8 57 14.1 90 90 S 8 13 29.97 1015 10 16 N/A
1:35 am 01:35 Clear 60 15.7 58 14.3 91 91 S 9 15 29.97 1015 10 16 N/A
1:55 am 01:55 Clear 60 15.8 58 14.5 92 92 S 9 15 29.97 1015 10 16 N/A
2:15 am 02:15 Clear 60 15.7 58 14.5 93 93 S 9 15 29.97 1015 10 16 N/A
2:35 am 02:35 Clear 60 15.6 58 14.5 93 93 S 9 15 29.97 1015 10 16 N/A
2:55 am 02:55 Clear 60 15.5 58 14.5 94 94 S 9 15 29.97 1015 10 16 N/A
3:15 am 03:15 Clear 60 15.5 58 14.5 94 94 S 8 13 29.96 1015 10 16 N/A
3:35 am 03:35 Clear 59 15.1 57 14.1 94 94 SSW 6 9 29.97 1015 10 16 N/A
3:55 am 03:55 Clear 59 15 57 14 94 94 S 6 9 29.97 1015 10 16 N/A
4:15 am 04:15 Clear 59 15 57 14 94 94 SSW 6 9 29.97 1015 10 16 N/A
4:35 am 04:35 Clear 58 14.7 57 13.7 94 94 SSW 7 11 29.98 1015 10 16 N/A
4:55 am 04:55 Clear 58 14.7 57 13.7 94 94 SSW 8 13 29.97 1015 10 16 N/A
5:15 am 05:15 Clear 58 14.3 56 13.3 94 94 SSW 8 13 29.98 1015 10 16 N/A
5:35 am 05:35 Clear 57 14.1 56 13.1 94 94 S 8 13 29.97 1015 10 16 N/A
5:55 am 05:55 Clear 57 13.9 55 12.9 94 94 SSW 8 13 29.97 1015 10 16 N/A
6:15 am 06:15 Clear 57 13.7 55 12.6 93 93 SSW 7 11 29.97 1015 10 16 N/A
6:35 am 06:35 Clear 56 13.5 55 12.5 94 94 S 8 13 29.97 1015 10 16 N/A
6:55 am 06:55 Clear 56 13.5 55 12.6 94 94 S 12 19 29.97 1015 10 16 N/A
7:15 am 07:15 Clear 56 13.3 55 12.5 95 95 SSW 8 13 29.97 1015 7 11 N/A
7:35 am 07:35 Mostly Cloudy with Mist and Fog 55 13 54 12.3 96 96 SSW 7 11 29.99 1015 5 8 N/A
7:55 am 07:55 Cloudy with Fog 55 12.8 54 12.2 96 96 S 10 17 29.99 1016 0 0 N/A
8:15 am 08:15 Cloudy with Fog 55 13 55 12.5 97 97 SSW 9 15 30.02 1016 0 0 N/A
8:35 am 08:35 Cloudy with Fog 56 13.5 55 13 97 97 SSW 12 19 30.02 1017 0 0 N/A
8:55 am 08:55 Cloudy with Fog 56 13.5 56 13.1 97 97 SSW 13 20 30.02 1017 0 0 N/A
9:15 am 09:15 Cloudy with Fog 57 13.7 56 13.3 97 97 SSW 17 28 30.01 1016 1 1 N/A
9:35 am 09:35 Cloudy with Mist and Fog 57 14.1 57 13.7 97 97 SSW 10 17 30.01 1016 1 2 N/A
9:55 am 09:55 Cloudy with Mist and Fog 58 14.5 57 14 97 97 SSW 12 19 30.00 1016 2 3 N/A
10:15 am 10:15 Cloudy with Mist and Fog 59 14.8 58 14.3 97 97 SSW 15 24 30.00 1016 4 6 N/A
10:35 am 10:35 Cloudy 60 15.3 58 14.4 94 94 SSW 15 24 30.01 1016 7 11 N/A
10:55 am 10:55 Cloudy 61 16.3 58 14.3 88 88 S 17 28 29.98 1015 7 11 N/A
11:15 am 11:15 Mostly Cloudy 64 17.9 58 14.3 80 80 SSW 15 24 29.97 1015 10 16 N/A
11:35 am 11:35 Partly Cloudy 66 19.1 58 14.5 75 75 SSW 15 24 29.95 1014 10 16 N/A
11:55 am 11:55 Sunny 69 20.4 58 14.5 69 69 SSW 12 19 29.93 1014 10 16 N/A
12:15 pm 12:15 Sunny 71 21.7 58 14.5 64 64 SSW 13 20 29.92 1013 10 16 N/A
12:35 pm 12:35 Sunny 73 22.8 58 14.6 60 60 S 13 20 29.90 1013 10 16 N/A
12:55 pm 12:55 Sunny 75 23.7 58 14.5 56 56 S 14 22 29.89 1012 10 16 N/A
1:15 pm 13:15 Sunny 76 24.6 58 14.4 53 53 SSW 14 22 29.89 1012 10 16 N/A
1:35 pm 13:35 Sunny 78 25.6 58 14.2 49 49 SSW 15 24 29.87 1012 10 16 N/A
1:55 pm 13:55 Sunny 80 26.5 57 14 46 46 S 15 24 29.85 1011 10 16 N/A
2:15 pm 14:15 Sunny 81 27.4 57 13.8 43 43 S 17 28 29.83 1010 10 16 N/A
2:35 pm 14:35 Sunny 82 27.8 55 13 40 40 SSW 15 24 29.82 1010 10 16 N/A
2:55 pm 14:55 Sunny 83 28.4 54 12.4 37 37 S 16 26 29.80 1009 10 16 N/A
3:15 pm 15:15 Sunny 84 28.8 53 11.6 34 34 S 16 26 29.80 1009 10 16 N/A
3:35 pm 15:35 Sunny 85 29.5 52 11.1 32 32 S 15 24 29.77 1008 10 16 N/A
3:55 pm 15:55 Sunny 85 29.3 51 10.6 31 31 S 14 22 29.77 1008 10 16 N/A
4:15 pm 16:15 Sunny 85 29.5 50 10.1 30 30 S 16 26 29.78 1009 10 16 N/A
4:35 pm 16:35 Sunny 86 29.8 48 9.1 27 27 SSW 15 24 29.77 1008 10 16 N/A
4:55 pm 16:55 Sunny 86 29.9 48 8.8 27 27 S 15 24 29.76 1008 10 16 N/A
5:15 pm 17:15 Sunny 85 29.7 48 9.1 28 28 S 15 24 29.75 1007 10 16 N/A
5:35 pm 17:35 Sunny 85 29.6 50 9.8 29 29 SSW 12 19 29.74 1007 10 16 N/A
5:55 pm 17:55 Sunny 85 29.3 49 9.5 29 29 SSW 12 19 29.74 1007 10 16 N/A
6:15 pm 18:15 Sunny 84 28.8 50 9.9 31 31 S 12 19 29.75 1007 10 16 N/A
6:35 pm 18:35 Sunny 83 28.1 50 10.1 32 32 S 8 13 29.75 1008 10 16 N/A
6:55 pm 18:55 Sunny 80 26.6 53 11.5 39 39 S 7 11 29.76 1008 10 16 N/A
7:15 pm 19:15 Sunny 77 25 54 12 44 44 S 5 7 29.78 1008 10 16 N/A
7:35 pm 19:35 Clear 74 23.4 54 12.4 50 50 S 3 6 29.79 1009 10 16 N/A
7:55 pm 19:55 Clear 72 22.4 55 13 55 55 S 6 9 29.80 1009 10 16 N/A
8:15 pm 20:15 Clear 71 21.8 56 13.2 58 58 S 7 11 29.81 1010 10 16 N/A
8:35 pm 20:35 Clear 70 20.9 56 13.1 61 61 SSE 6 9 29.82 1010 10 16 N/A
8:55 pm 20:55 Clear 68 20.1 56 13.1 64 64 S 7 11 29.83 1010 10 16 N/A
9:15 pm 21:15 Clear 69 20.5 56 13.1 63 63 SSE 6 9 29.83 1010 10 16 N/A
9:35 pm 21:35 Clear 68 20 56 13.2 65 65 S 6 9 29.85 1011 10 16 N/A
9:55 pm 21:55 Clear 69 20.5 55 13 62 62 S 8 13 29.85 1011 10 16 N/A
10:15 pm 22:15 Clear 68 20.1 55 12.8 63 63 SSE 6 9 29.84 1010 10 16 N/A
10:35 pm 22:35 Clear 67 19.5 55 12.7 65 65 S 5 7 29.84 1011 10 16 N/A
10:55 pm 22:55 Clear 67 19.2 55 12.7 66 66 S 6 9 29.85 1011 10 16 N/A
11:15 pm 23:15 Clear 67 19.2 55 12.6 66 66 S 7 11 29.84 1011 10 16 N/A
11:35 pm 23:35 Clear 66 19 55 12.5 66 66 S 8 13 29.84 1010 10 16 N/A
11:55 pm 23:55 Clear 65 18.6 55 12.6 68 68 SSW 7 11 29.84 1010 10 16 N/A

Powered by AerisWeather